Find Starlink 5542

NORAD ID: 57075 Int'l Des: 2023-088 Owner: SPXS Country: US Constellation: starlink operational
LEOCIRCULAR

当前视图

正在加载3D地球...

关于 Starlink 5542

正在加载描述...

即将过境

Passes for default location (London). Set your location on the main map for personalized predictions.

高度历史

Loading altitude history...

两行轨道根数

1 57075U 23088AD 26145.96892956 -.00000751 00000-0 -17756-4 0 9992
2 57075 43.0065 19.3148 0001412 277.0303 83.0389 15.27572156162326
Epoch: May 25, 2026 • Age: 18 hours

当前状态

高度 483.5 km
速度 7.63 km/s
星下点 23.54°N, 25.97°E
发射日期 Jun 22, 2023
运行时间 2.9 years
类型 internet

技术详情

分类 Payload
质量 305.00 kg
干质量 290.00 kg
总质量 305.00 kg
长度 0.20 m
直径 2.80 m
跨度 9.00 m
形状 Box + pan
制造商 SPXS
平台类型 Starlink
阶段状态 In Orbit
所有者/国家 SPXS/US

Most Searched